Jacksonville NAS, FL

3:04 PM EDT on June 23, 2017 (GMT -0400)
Jacksonville Naval Air Station

Weather History for KNIP - August, 2013

Change the Weather History Date:

Saturday, August 3, 2013

  Actual Average Record
Temperature  
Mean Temperature 82 °F -  
Max Temperature 89 °F 88 °F 99 °F (2006)
Min Temperature 75 °F 73 °F 72 °F (2000)
Cooling Degree Days 17    
Growing Degree Days 32 (Base 50)    
Moisture  
Dew Point 75 °F    
Average Humidity 77    
Maximum Humidity 94    
Minimum Humidity 59    
Precipitation  
Precipitation 0.02 in - - ()
Sea Level Pressure  
Sea Level Pressure 30.02 in    
Wind  
Wind Speed 6 mph (SW)    
Max Wind Speed 13 mph    
Max Gust Speed 18 mph    
Visibility 10 miles    
Events Rain , Thunderstorm    
Averages and records for this station are not official NWS values.
T = Trace of Precipitation, MM = Missing Value Source: NWS Daily Summary

Daily Weather History Graph

Daily Weather History Graph

Search for Another Location

Airport or City:

Trip Planner

Search our weather history database for the weather conditions in past years. The results will help you decide how hot, cold, wet, or windy it might be!

Date:

Astronomy

Aug. 03, 2013 Rise Set
Actual Time 6:46 AM EDT 8:18 PM EDT
Civil Twilight 6:20 AM EDT 8:44 PM EDT
Nautical Twilight 5:49 AM EDT 9:15 PM EDT
Astronomical Twilight 5:17 AM EDT 9:47 PM EDT
Moon 3:57 AM EDT (8/3) 5:57 PM EDT (8/3)
Length of Visible Light 14h 23m
Length of Day
13h 31m
Waning Crescent, 9% of the Moon is Illuminated
Aug 3
Waning Crescent
Aug 6
New
Aug 14
First Quarter
Aug 20
Full
Aug 28
Last Quarter

Hourly Weather History & Observations

Time (EDT) Temp. Heat Index Dew Point Humidity Pressure Visibility Wind Dir Wind Speed Gust Speed Precip Events Conditions
12:53 AM 82.0 °F 87.9 °F 73.9 °F 76% 30.03 in 10.0 mi SSE 4.6 mph - N/A   Mostly Cloudy
1:53 AM 81.0 °F 86.7 °F 75.0 °F 82% 30.02 in 10.0 mi South 5.8 mph - N/A   Mostly Cloudy
2:53 AM 79.0 °F - 75.0 °F 88% 30.01 in 10.0 mi WSW 4.6 mph - N/A   Scattered Clouds
3:53 AM 78.1 °F - 73.9 °F 87% 29.99 in 10.0 mi WSW 5.8 mph - N/A   Mostly Cloudy
4:53 AM 75.9 °F - 73.0 °F 91% 29.99 in 10.0 mi West 4.6 mph - N/A   Mostly Cloudy
5:53 AM 75.9 °F - 73.0 °F 91% 30.00 in 10.0 mi West 3.5 mph - N/A   Mostly Cloudy
6:53 AM 75.0 °F - 73.0 °F 94% 30.02 in 9.0 mi Calm Calm - N/A   Mostly Cloudy
7:53 AM 77.0 °F - 73.0 °F 88% 30.03 in 9.0 mi West 6.9 mph - N/A   Scattered Clouds
8:53 AM 80.1 °F 84.5 °F 73.9 °F 81% 30.04 in 10.0 mi West 5.8 mph - N/A   Partly Cloudy
9:53 AM 84.0 °F 91.2 °F 73.9 °F 72% 30.04 in 10.0 mi West 4.6 mph - N/A   Scattered Clouds
10:53 AM 86.0 °F 93.0 °F 73.0 °F 65% 30.04 in 10.0 mi WSW 5.8 mph - N/A   Mostly Cloudy
11:53 AM 88.0 °F 95.6 °F 73.0 °F 61% 30.05 in 10.0 mi West 6.9 mph - N/A   Mostly Cloudy
12:53 PM 89.1 °F 97.0 °F 73.0 °F 59% 30.04 in 10.0 mi WSW 5.8 mph - N/A   Mostly Cloudy
1:19 PM 86.0 °F 96.0 °F 75.9 °F 72% 30.05 in 7.0 mi West 12.7 mph 18.4 mph 0.00 in Rain Light Rain
1:53 PM 87.1 °F 99.8 °F 78.1 °F 74% 30.03 in 10.0 mi West 5.8 mph - 0.00 in Rain Light Rain
2:53 PM 88.0 °F 94.7 °F 72.0 °F 59% 30.02 in 10.0 mi WNW 5.8 mph - 0.01 in   Mostly Cloudy
3:53 PM 84.9 °F 92.1 °F 73.9 °F 69% 30.01 in 10.0 mi SSE 9.2 mph - N/A   Overcast
4:33 PM 84.0 °F 91.9 °F 75.0 °F 74% 30.02 in 10.0 mi ESE 12.7 mph - N/A Thunderstorm Thunderstorm
4:53 PM 84.0 °F 91.2 °F 73.9 °F 72% 30.00 in 10.0 mi SSE 9.2 mph - N/A Thunderstorm Thunderstorm
5:02 PM 84.0 °F 91.2 °F 73.9 °F 72% 30.00 in 9.0 mi SSE 8.1 mph - 0.00 in Rain , Thunderstorm Light Thunderstorms and Rain
5:21 PM 84.0 °F 91.9 °F 75.0 °F 74% 30.01 in 10.0 mi South 9.2 mph - 0.00 in   Overcast
5:53 PM 84.0 °F 91.9 °F 75.0 °F 74% 30.00 in 10.0 mi South 10.4 mph - 0.00 in   Overcast
6:53 PM 84.0 °F 93.7 °F 77.0 °F 79% 29.98 in 10.0 mi South 9.2 mph - N/A   Overcast
7:53 PM 84.0 °F 92.6 °F 75.9 °F 76% 29.99 in 10.0 mi SSW 8.1 mph - N/A   Overcast
8:53 PM 84.0 °F 93.7 °F 77.0 °F 79% 30.02 in 10.0 mi SSW 5.8 mph - N/A   Overcast
9:24 PM 84.0 °F 93.7 °F 77.0 °F 79% 30.05 in 10.0 mi SW 8.1 mph - N/A Thunderstorm Overcast
9:53 PM 82.0 °F 91.0 °F 78.1 °F 88% 30.05 in 8.0 mi NW 6.9 mph - 0.01 in Rain Light Rain
10:53 PM 82.0 °F 90.2 °F 77.0 °F 85% 30.06 in 10.0 mi SSW 4.6 mph - 0.00 in   Overcast
11:53 PM 81.0 °F 86.7 °F 75.0 °F 82% 30.04 in 10.0 mi SW 6.9 mph - N/A   Mostly Cloudy